DW8587 Weather Reports


Display with metric or nautical units.
time (UTC)temp
F
wind
direction
speed
MPH
gust
MPH
rain 1hr
in
rain 24hr
in
rain mn
in
humidity
%
barometer
mb
20260906090028 84 140 3.0 6.0 0.00 0.00 0.00 55 1021.4
20260906084531 83 50 2.0 6.0 0.00 0.00 0.00 54 1021.4
20260906083021 82 360 3.0 6.0 0.00 0.00 0.00 54 1021.4
20260906081517 81 41 4.0 7.0 0.00 0.00 0.00 54 1021.3
20260906080014 80 22 3.0 6.0 0.00 0.00 0.00 55 1021.2
20260906074511 79 27 3.0 6.0 0.00 0.00 0.00 56 1021.1
20260906073006 78 43 4.0 7.0 0.00 0.00 0.00 56 1021.0
20260906071504 77 355 3.0 8.0 0.00 0.00 0.00 58 1021.0
20260906070004 76 351 3.0 6.0 0.00 0.00 0.00 60 1020.9
20260906064507 75 360 3.0 6.0 0.00 0.00 0.00 60 1020.7
20260906063100 74 5 2.0 5.0 0.00 0.00 0.00 63 1020.7
20260906061556 73 41 3.0 6.0 0.00 0.00 0.00 63 1020.6
20260906060138 72 34 3.0 5.0 0.00 0.00 0.00 63 1020.4
20260906054553 72 35 2.0 6.0 0.00 0.00 0.00 64 1020.1
20260906053050 71 41 3.0 6.0 0.00 0.00 0.00 64 1020.0
20260906051546 71 355 3.0 4.0 0.00 0.00 0.00 64 1019.7
20260906050046 71 355 3.0 4.0 0.00 0.00 0.00 64 1019.5
20260906044544 72 5 2.0 5.0 0.00 0.00 0.00 62 1019.3
20260906043041 71 22 5.0 8.0 0.00 0.00 0.00 64 1019.1
20260906041539 70 347 3.0 5.0 0.00 0.00 0.00 64 1019.1
20260906040041 71 355 3.0 6.0 0.00 0.00 0.00 63 1019.0
20260906034541 71 345 3.0 6.0 0.00 0.00 0.00 63 1019.0
20260906033036 71 36 3.0 6.0 0.00 0.00 0.00 62 1018.9
20260906031603 71 360 3.0 7.0 0.00 0.00 0.00 63 1018.8
20260906030034 71 5 4.0 6.0 0.00 0.00 0.00 64 1018.8
20260906024538 70 37 3.0 5.0 0.00 0.00 0.00 65 1018.6
20260906023036 71 355 2.0 5.0 0.00 0.00 0.00 65 1018.6
20260906021529 71 44 3.0 6.0 0.00 0.00 0.00 65 1018.5
20260906020027 71 10 3.0 5.0 0.00 0.00 0.00 64 1018.4
20260906014526 71 20 2.0 5.0 0.00 0.00 0.00 62 1018.2
20260906013023 72 355 3.0 4.0 0.00 0.00 0.00 61 1018.2
20260906011521 73 42 3.0 5.0 0.00 0.00 0.00 59 1018.1
20260906010017 74 34 2.0 5.0 0.00 0.00 0.00 56 1018.1
20260906004514 74 31 4.0 6.0 0.00 0.00 0.00 57 1017.9
20260906003015 77 36 1.0 5.0 0.00 0.00 0.00 51 1018.0
20260906001514 77 94 6.0 10.0 0.00 0.00 0.00 51 1018.1
20260906000012 74 126 1.0 4.0 0.00 0.00 0.00 56 1017.9
20260905234509 75 19 1.0 3.0 0.00 0.00 0.00 55 1017.7
20260905233007 76 37 1.0 3.0 0.00 0.00 0.00 53 1017.7
20260905231505 76 355 2.0 4.0 0.00 0.00 0.00 53 1017.6
20260905230004 76 17 2.0 4.0 0.00 0.00 0.00 54 1017.6
20260905224503 76 12 3.0 8.0 0.00 0.00 0.00 54 1017.4
20260905223001 76 34 3.0 6.0 0.00 0.00 0.00 54 1017.3
20260905221612 77 350 4.0 8.0 0.00 0.00 0.00 54 1017.1
20260905220052 81 360 3.0 13.0 0.00 0.00 0.00 46 1017.2
20260905214558 79 46 3.0 5.0 0.00 0.00 0.00 50 1017.1
20260905213048 79 33 4.0 10.0 0.00 0.00 0.00 48 1017.0
20260905211549 78 355 3.0 6.0 0.00 0.00 0.00 55 1017.0
20260905210053 77 355 4.0 8.0 0.00 0.00 0.00 60 1016.8
20260905204544 76 355 3.0 5.0 0.00 0.00 0.00 66 1016.7
20260905203043 76 35 2.0 4.0 0.00 0.00 0.00 72 1016.6
20260905201542 76 355 2.0 4.0 0.00 0.00 0.00 75 1016.5
20260905200044 77 349 3.0 6.0 0.00 0.00 0.00 75 1016.4
20260905194539 78 44 3.0 6.0 0.00 0.00 0.00 73 1016.3
20260905193042 78 30 4.0 6.0 0.00 0.00 0.00 73 1016.2
20260905191536 78 54 4.0 9.0 0.00 0.00 0.00 72 1016.0
20260905190044 79 347 3.0 6.0 0.00 0.00 0.00 73 1015.8
20260905184536 80 43 3.0 5.0 0.00 0.00 0.00 72 1015.6
20260905183035 81 38 0.0 6.0 0.00 0.00 0.00 71 1015.4
20260905181535 82 42 3.0 5.0 0.00 0.00 0.00 69 1015.2
20260905180048 84 39 2.0 4.0 0.00 0.00 0.00 65 1015.0
20260905174533 86 307 1.0 2.0 0.00 0.00 0.00 60 1014.9
20260905173032 87 301 1.0 3.0 0.00 0.00 0.00 59 1014.7
20260905171547 88 298 0.0 0.0 0.00 0.00 0.00 54 1014.6
20260905170031 88 298 0.0 1.0 0.00 0.00 0.00 56 1014.7
20260905164531 88 298 1.0 4.0 0.00 0.00 0.00 56 1014.7
20260905163030 89 327 0.0 2.0 0.00 0.00 0.00 54 1014.5
20260905161529 89 246 1.0 4.0 0.00 0.00 0.00 54 1014.6
20260905160047 89 248 1.0 3.0 0.00 0.00 0.00 56 1014.5
20260905154529 89 302 1.0 5.0 0.00 0.00 0.00 56 1014.6
20260905153033 89 250 2.0 9.0 0.00 0.00 0.00 55 1014.5
20260905151528 89 263 3.0 8.0 0.00 0.00 0.00 54 1014.6
20260905150027 89 217 2.0 5.0 0.00 0.00 0.00 55 1014.5
20260905144529 89 265 4.0 9.0 0.00 0.00 0.00 54 1014.7
20260905143025 89 243 4.0 7.0 0.00 0.00 0.00 53 1014.6
20260905141525 90 257 5.0 8.0 0.00 0.00 0.00 52 1014.7
20260905140023 90 300 3.0 9.0 0.00 0.00 0.00 51 1014.8
20260905134521 89 263 6.0 10.0 0.00 0.00 0.00 51 1014.8
20260905133025 89 252 3.0 7.0 0.00 0.00 0.00 52 1014.9
20260905131521 90 223 2.0 7.0 0.00 0.00 0.00 52 1015.2
20260905130019 90 217 2.0 6.0 0.00 0.00 0.00 54 1015.3
20260905124517 89 279 2.0 6.0 0.00 0.00 0.00 53 1015.3
20260905123014 89 241 1.0 7.0 0.00 0.00 0.00 56 1015.4
20260905121512 88 207 1.0 8.0 0.00 0.00 0.00 55 1015.5
20260905120023 87 294 4.0 9.0 0.00 0.00 0.00 56 1015.6
20260905114509 87 236 3.0 8.0 0.00 0.00 0.00 56 1015.7
20260905113007 87 240 3.0 8.0 0.00 0.00 0.00 57 1015.8
20260905111505 86 245 2.0 7.0 0.00 0.00 0.00 58 1015.8
20260905110011 85 250 1.0 6.0 0.00 0.00 0.00 57 1015.8
20260905104505 85 305 2.0 9.0 0.00 0.00 0.00 59 1015.8
20260905103104 84 298 3.0 9.0 0.00 0.00 0.00 63 1015.9
20260905101601 84 238 3.0 7.0 0.00 0.00 0.00 60 1016.0
20260905100100 83 256 2.0 7.0 0.00 0.00 0.00 61 1016.0
20260905094555 82 319 3.0 7.0 0.00 0.00 0.00 62 1016.1
20260905093107 82 232 2.0 5.0 0.00 0.00 0.00 62 1016.0
20260905091554 82 306 1.0 4.0 0.00 0.00 0.00 60 1016.0